Location: �chenoz-la-M�line
(47.6009°N, 6.1354°E)
Time: 13:04:31
(UTC+00:00)

Lacrosse 4 Rocket - Pass Details

Date: 27 January 2021
Orbit: 536 x 621 km, 68.0° (Epoch: 02 March)

Event Time Altitude Azimuth Distance (km) Brightness Sun altitude
Exits shadow 04:04:27 31° 96° (E) 1,050 3.2 -30.9°
Drops below altitude 10° 04:07:45 10° 49° (NE) 1,937 4.7 -30.3°
Sets 04:10:12 0° 40° (NE) 2,859 5.6 -29.9°
